Regional Weather Roundup
Issued by NWS

Home | Current Version | Previous Version | Text Only | Print | Product List | Glossary Off
Versions: 1 2 3 4 5 6 7 8 9 10 11 12 13 14 15 16 17 18 19 20 21 22 23 24 25 26 27 28 29 30 31 32 33 34 35 36 37 38 39 40 41 42 43 44 45 46 47 48 49 50

000
ASUS43 KLOT 280508
RWRIL

ILLINOIS REGIONAL WEATHER ROUNDUP
NATIONAL WEATHER SERVICE CHICAGO/ROMEOVILLE IL
1200 AM CDT TUE JUL 28 2015

NOTE: "FAIR" INDICATES FEW OR NO CLOUDS BELOW 12,000 FEET WITH NO
SIGNIFICANT WEATHER AND/OR OBSTRUCTIONS TO VISIBILITY.

* THESE STATIONS ARE NOT UNDER NWS QUALITY CONTROL. THEY ALSO MAY NOT
  REPORT WEATHER SUCH AS PRECIPITATION OR FOG.

ILZ001-002-007-009-015-016-024-280600-
NORTHWEST ILLINOIS

CITY           SKY/WX    TMP DP  RH WIND       PRES   REMARKS
MOLINE         PTCLDY    74  71  91 CALM      29.94S
STERLING*      MOCLDY    72  68  88 E5        29.96S
SAVANNA*       PTCLDY    73  69  88 E6        29.96F
$$

ILZ003-004-008-010-011-017-018-280600-
NORTH CENTRAL ILLINOIS

CITY           SKY/WX    TMP DP  RH WIND       PRES   REMARKS
ROCKFORD       MOCLDY    72  63  73 E6        30.00F
FREEPORT*      MOCLDY    67  64  90 E3        30.01S
ROCHELLE*      MOCLDY    68  65  88 E6        30.00F
DE KALB*       MOCLDY    67  63  85 E8        30.01F
PERU*          MOCLDY    76  64  65 E8        29.98F
$$

ILZ005-006-012>014-019>023-280600-
NORTHEAST ILLINOIS

CITY           SKY/WX    TMP DP  RH WIND       PRES   REMARKS
CHICAGO-OHARE  MOCLDY    74  66  76 E8        30.00F
CHICAGO-MIDWAY MOCLDY    77  66  68 E9        30.00F
AURORA         MOCLDY    71  63  75 E3        30.00F
LANSING*       PTCLDY    72  65  78 NE5       30.01F
JOLIET*        MOCLDY    74  67  78 E6        29.99F
WAUKEGAN       PTCLDY    67  66  97 CALM      30.01F
DUPAGE AIRPORT PTCLDY    73  63  70 E6        30.00F
KANKAKEE*      MOCLDY    72  68  89 CALM      30.00F
WHEELING       PTCLDY    71  66  84 CALM      30.02F
MORRIS*        MOCLDY    72  66  83 E5        29.97S
ROMEOVILLE*    PTCLDY    73  64  74 E8        30.00F
NORTHERLY ISL    N/A     73  68  84 NE2         N/A
$$

LMZ740>746-280600-
SOUTHERN LAKE MICHIGAN

STATION/POSITION SKY/WX   TEMP    WIND        PRES    VSBY  WAVE
                          AIR SEA DIR/SP/G                  HT/PER
                          (F)     (DEG/KT/KT) (MB)    (MI)  (FT/S)
HARRISON CRIB              74      80/ 12/ 15   N/A
BURNHAM HARBOR             73      20/  3/  4   N/A
CALUMET HARBOR             75      90/  4/  5   N/A
BURNS HARBOR               73      80/  8/  9 1016.9S
MICHIGAN CITY              73      60/  2/  2   N/A
MICHIGAN CITY 6N           74 75   80/  8/ 10   N/A           2/ 3
ST. JOSEPH                 73 74  130/  4/  4   N/A           1
$$

ILZ025>027-034>036-040-047-049-050-058-095>099-280600-
WEST-CENTRAL ILLINOIS

CITY           SKY/WX    TMP DP  RH WIND       PRES   REMARKS
QUINCY         MOCLDY    73  70  90 CALM      29.93S
GALESBURG*     MOCLDY    74  72  91 CALM      29.95S
MACOMB*        MOCLDY    73  73  97 E5        29.96S FOG
JACKSONVILLE*  CLOUDY    75  73  93 CALM      29.94R
PITTSFIELD*    CLOUDY    73  71  94 CALM      29.94F
$$

ILZ028>032-037-038-041>044-048-051>054-059>061-280600-
CENTRAL ILLINOIS

CITY           SKY/WX    TMP DP  RH WIND       PRES   REMARKS
PONTIAC        CLOUDY    75  71  86 E5        29.99S
BLOOMINGTON    CLOUDY    74  73  96 E6        29.98F
DECATUR        CLOUDY    75  72  90 SE3       29.96F
PEORIA         CLOUDY    79  71  76 E7        29.95S HX  82
LACON*         CLOUDY    75  69  80 E7        29.95F
LINCOLN*       CLOUDY    76  73  88 CALM      29.94F
SPRINGFIELD    CLOUDY    79  75  87 SE6       29.94F HX  83
TAYLORVILLE    CLOUDY    77  73  88 SE5       29.95S
$$

ILZ033-039-045-046-055>057-062-063-280600-
EAST-CENTRAL ILLINOIS

CITY           SKY/WX    TMP DP  RH WIND       PRES   REMARKS
CHAMPAIGN      CLOUDY    76  72  87 E5        29.98S
DANVILLE*      CLOUDY    74  71  92 E5        29.95F
RANTOUL*       CLOUDY    77  73  88 E7        29.97F
MATTOON        CLOUDY    77  71  82 NE3       29.96F
PARIS*         CLOUDY    74  73  98 E3        29.97F FOG
$$

ILZ079-100>102-280600-
SOUTHWEST ILLINOIS

CITY           SKY/WX    TMP DP  RH WIND       PRES   REMARKS
ALTON          CLOUDY    72  70  94 CALM      29.95S
BELLEVILLE     CLOUDY    74  74  99 E2        29.94F
CAHOKIA*       CLOUDY    76  71  85 CALM      29.94F
SPARTA*        CLOUDY    75  73  93 CALM      29.97F
$$

ILZ064>066-069>071-074>076-080>082-084>086-088>090-092>094-280600-
SOUTH-CENTRAL ILLINOIS

CITY           SKY/WX    TMP DP  RH WIND       PRES   REMARKS
CARBONDALE     CLOUDY    76  73  91 VRB3      29.97S
CAIRO*         CLOUDY    76  75  96 N8        29.96S
EFFINGHAM*     CLOUDY    77  73  86 CALM      29.97F
MARION         CLOUDY    77  75  94 CALM      29.98S
MT. VERNON     CLOUDY    75  70  83 W3        29.96F
CENTRALIA*     CLOUDY    74  70  88 CALM      29.95F
SALEM*         CLOUDY    78  72  82 SW6       29.96F HX  80
METROPOLIS*    CLOUDY    77  77 100 CALM      29.96F
$$

ILZ067-068-072-073-078-083-087-091-280600-
SOUTHEAST ILLINOIS

CITY           SKY/WX    TMP DP  RH WIND       PRES   REMARKS
LAWRENCEVILLE  CLOUDY    76  72  87 CALM      29.97S
FAIRFIELD*     CLOUDY    77  75  95 CALM      29.95S
HARRISBURG*    CLOUDY    74  74 100 CALM      29.97F
ROBINSON*      CLOUDY    74  72  95 E5        29.97F
CARMI*         CLOUDY    74  69  85 CALM      29.95F
$$

ABBREVIATIONS USED IN REMARKS
   TC - TEMPERATURE IN CELSIUS
  WCI - WIND CHILL INDEX
   HX - HEAT INDEX
  VSB - VISIBILITY
$$



USA.gov is the U.S. government's official web portal to all federal, state and local government web resources and services.